User: anonymous   Login
Location: Unspecified
(0.0000°N, 0.0000°E)
Time: 23:59:29
(UTC+02:00)
Language:

Ariane H10 - Orbit

View from above orbital plane
View from above orbital plane
View from above satellite
View from above satellite

Ground track
Ground track

The orbit data is extracted from the following two-line orbital elements,

1 19622U 88098B   16206.67288617  .00001667  00000-0  56078-3 0  9992
2 19622   3.8403  20.6498 6407413 179.5265 181.8749  3.43046084293036
Epoch (UTC): 24 July 2016 16:08:57
Eccentricity: 0.6407413
inclination: 3.8403°
perigee height: 293 km
apogee height: 24092 km
right ascension of ascending node: 20.6498°
argument of perigee: 179.5265°
revolutions per day: 3.43046084
mean anomaly at epoch: 181.8749°
orbit number at epoch: 29303

The dashed part of the orbit path shows where the satellite is in the earth's shadow,  

DLR